Location: Burland Observatory
(39.4088°N, 105.4217°W)
Time: 04:52:47
(UTC-07:00)

SR - Pass Details

Date: 15 December 2019
Orbit: 574 x 882 km, 66.7° (Epoch: 21 January)

Event Time Altitude Azimuth Distance (km) Brightness Sun altitude
Rises 15:50:31 0° 340° (NNW) 3,479 ? 6.9°
Reaches altitude 10° 15:53:36 10° 355° (N) 2,521 ? 6.5°
Maximum altitude 15:58:10 23° 46° (NE) 1,736 ? 5.8°
Drops below altitude 10° 16:02:32 10° 97° (E) 2,408 ? 5.1°
Sets 16:05:24 0° 112° (ESE) 3,286 ? 4.6°
